SCP
0 0 0 0 0 0 0 0 0 0 0 0 0 0 0 0 0 0 0 0 0 0 0 0 0 0 0 0 0 0 0 0 0 0 0 0 0 0 0 0 0 0 0 0 0 0 0 0 0
0 0 0 0 0 0 0 0 0 0 0 0 0 0 0 0 0 0 0 0 0 0 0 0 0 0 0 0 0 0 0 0 0 0 0 0 0 0 0 0 0 0 0 0 0 0 0 0 0
0 0 0 0 0 0 0 0 0 0 0 0 0 0 0 0 0 0 0 0 0 0 0 0 0 0 0 0 0 0 0 0 0 0 0 0 0 0 0 0 0 0 0 0 0 0 0 0 0
0 0 0 0 0 -0 0 0 0 0 0 0 0 0 0 0 0 0 0 0 0 0 0 0 0 0 0 0 0 0 0 0 0 0 0 0 0 0 0 0 0 0 0 0 0 0 0 0 0
0 0 -0 -0 -0 -0 0 0 0 0 0 0 0 0 0 0 0 0 0 0 0 0 0 0 0 0 0 0 0 0 0 0 0 0 0 0 0 0 0 0 0 0 0 0 0 0 0 0 0
0 0 0 0 0 0 0 0 0 0 0 0 0 0 0 0 0 0 0 0 0 0 0 0 0 0 0 0 0 0 0 0 0 0 0 0 0 0 0 0 0 0 0 0 0 0 0 0 0
0 0 0 0 0 0 0 0 0 0 0 0 0 0 0 0 0 0 0 0 0 0 0 0 0 0 0 0 0 0 0 0 0 0 0 0 0 0 0 0 0 0 0 0 0 0 0 0 0
0 0 0 0 0 0 0 0 0 0 0 0 0 0 0 0 0 0 0 0 0 0 0 0 0 0 0 0 0 0 0 0 0 0 0 0 0 0 0 0 0 0 0 0 0 0 0 0 0
0 0 0 0 0 0 0 0 0 0 0 0 0 0 0 0 0 0 0 0 0 0 0 0 0 0 0 0 0 0 0 0 0 0 0 0 0 0 0 0 0 0 0 0 0 0 0 0 0
0 0 0 0 0 0 0 0 0 0 0 0 0 0 0 0 0 0 0 0 0 0 0 0 0 0 0 0 0 0 0 0 0 0 0 0 0 0 0 0 0 0 0 0 0 0 0 0 0
0 0 0 0 0 0 0 0 0 0 0 0 0 0 0 0 0 0 0 0 0 0 0 0 0 0 0 0 0 0 0 0 0 0 0 0 0 0 0 0 0 0 0 0 0 0 0 0 0
0 0 0 0 0 0 0 0 0 0 0 0 0 0 0 0 0 0 0 0 0 0 0 0 0 0 0 0 0 0 0 0 0 0 0 0 0 0 0 0 0 0 0 0 0 0 0 0 0
0 0 0 0 0 0 0 0 0 0 0 0 0 0 0 0 0 0 0 0 0 0 0 0 0 0 0 0 0 0 0 0 0 0 0 0 0 0 0 0 0 0 0 0 0 0 0 0 0
0 0 0 0 0 0 0 0 0 0 0 0 0 0 0 0 0 0 0 0 0 0 0 0 0 0 0 0 0 0 0 0 0 0 0 0 0 0 0 0 0 0 0 0 0 0 0 0 0
0 0 0 0 0 0 0 0 0 0 0 0 0 0 0 0 0 0 0 0 0 0 0 0 0 0 0 0 0 0 0 0 0 0 0 0 0 0 0 0 0 0 0 0 0 0 0 0 0
0 0 0 0 0 0 0 0 0 0 0 0 0 0 0 0 0 0 0 0 0 0 0 0 0 0 0 0 0 0 0 0 0 0 0 0 0 0 0 0 0 0 0 0 0 0 0 0 0
0 0 0 0 0 0 0 0 0 0 0 0 0 0 0 0 0 0 0 0 0 0 0 0 0 0 0 0 0 0 0 0 0 0 0 0 0 0 0 0 0 0 0 0 0 0 0 0 0
0 0 0 0 0 0 0 0 0 0 0 0 0 0 0 0 0 0 0 0 0 0 0 0 0 0 0 0 0 0 0 0 0 0 0 0 0 0 0 0 0 0 0 0 0 0 0 0 0
0 0 0 0 0 0 0 0 0 0 0 0 0 0 0 0 0 0 0 0 0 0 0 0 0 0 0 0 0 0 0 0 0 0 0 0 0 0 0 0 0 0 0 0 0 0 0 0 0
0 0 0 0 0 0 0 0 0 0 0 0 0 0 0 0 0 0 0 0 0 0 0 0 0 0 0 0 0 0 0 0 0 0 0 0 0 0 0 0 0 0 0 0 0 0 0 0 0
0 0 0 0 0 0 0 0 0 0 0 0 0 0 0 0 0 0 0 0 0 0 0 0 0 0 0 0 0 0 0 0 0 0 0 0 0 0 0 0 0 0 0 0 0 0 0 0 0
0 0 0 0 0 0 0 0 0 0 0 0 0 0 0 0 0 0 0 0 0 0 0 0 0 0 0 0 0 0 0 0 0 0 0 0 0 0 0 0 0 0 0 0 0 0 0 0 0
0 0 0 0 0 0 0 0 0 0 0 0 0 0 0 0 0 0 0 0 0 0 0 0 0 0 0 0 0 0 0 0 0 0 0 0 0 0 0 0 0 0 0 0 0 0 0 0 0
0 0 0 0 0 0 0 0 0 0 0 0 0 0 0 0 0 0 0 0 0 0 0 0 0 0 0 0 0 0 0 0 0 0 0 0 0 0 0 0 0 0 0 0 0 0 0 0 0
0 0 0 0 0 0 0 0 0 0 0 0 0 0 0 0 0 0 0 0 0 0 0 0 0 0 0 0 0 0 0 0 0 0 0 0 0 0 0 0 0 0 0 0 0 0 0 0 0
0 0 0 0 0 0 0 0 0 0 0 0 0 0 0 0 0 0 0 0 0 0 0 0 0 0 0 0 0 0 0 0 0 0 0 0 0 0 0 0 0 0 0 0 0 0 0 0 0
0 0 0 0 0 0 0 0 0 0 0 0 0 0 0 0 0 0 0 0 0 0 0 0 0 0 0 0 0 0 0 0 0 0 0 0 0 0 0 0 0 0 0 0 0 0 0 0 0
0 0 0 0 0 0 0 0 0 0 0 0 0 0 0 0 0 0 0 0 0 0 0 0 0 0 0 0 0 0 0 0 0 0 0 0 0 0 0 0 0 0 0 0 0 0 0 0 0
0 0 0 0 0 0 0 0 0 0 0 0 0 0 0 0 0 0 0 0 0 0 0 0 0 0 0 0 0 0 0 0 0 0 0 0 0 0 0 0 0 0 0 0 0 0 0 0 0
0 0 0 0 0 0 0 0 0 0 0 0 0 0 0 0 0 0 0 0 0 0 0 0 0 0 0 0 0 0 0 0 0 0 0 0 0 0 0 0 0 0 0 0 0 0 0 0 0
Wind_Speed
7 9 7 2 3 3 6 6 7 7 5 6 7 7 8 7 7 10 5 5 6 6 9 12 15 16 17 18 19 19 20 21 21 22 22 23 23 23 23 23 23 24 24 24 25 25 26 26 26
7 6 4 3 3 3 5 6 10 8 8 6 4 7 8 8 9 9 6 4 6 8 8 10 14 15 17 17 18 19 19 20 21 21 22 22 22 22 22 22 23 23 23 23 23 24 24 25 26
10 7 4 2 5 5 8 10 13 11 7 5 5 7 7 7 8 6 5 4 7 7 7 9 13 14 16 17 17 18 19 19 20 21 21 22 22 22 23 23 23 23 23 23 23 23 23 24 24
5 4 3 4 8 7 9 13 12 10 5 5 8 7 5 6 5 8 6 5 7 7 6 7 12 13 14 15 16 17 18 19 20 20 21 22 22 22 22 22 23 24 24 24 24 24 24 24 24
3 4 2 6 6 9 11 13 11 9 7 5 7 8 6 6 11 10 6 6 6 6 5 6 10 11 12 13 16 17 18 19 19 20 21 22 22 22 22 22 23 24 24 25 25 25 25 24 25
3 4 2 7 8 8 8 8 6 9 7 4 5 9 7 8 8 8 7 6 6 5 5 4 8 10 10 11 13 15 16 17 18 19 21 22 21 22 22 22 23 24 24 25 25 25 25 25 25
3 3 3 9 8 6 8 5 4 6 6 5 4 8 8 9 8 7 6 6 6 5 5 4 5 7 10 11 11 13 14 16 18 19 20 21 22 23 23 23 24 25 25 25 26 26 26 27 26
4 1 4 6 8 6 9 4 2 3 5 4 1 5 9 12 11 7 6 5 6 5 5 4 5 5 5 6 10 12 14 15 17 18 20 21 20 21 22 22 24 25 26 27 26 26 28 28 26
4 2 4 4 6 8 10 5 3 5 7 3 2 7 11 18 13 8 6 6 6 6 5 5 5 5 5 5 9 9 11 13 14 13 18 16 8 8 11 18 24 25 26 26 26 27 28 27 24
5 3 6 6 5 9 10 7 7 4 6 5 5 9 15 13 11 9 8 7 6 6 5 5 4 4 5 5 5 3 4 5 6 5 7 5 6 7 12 19 22 24 25 24 25 27 24 19 11
6 6 5 6 6 10 9 7 8 6 6 8 11 13 14 11 10 9 8 6 7 6 5 5 3 3 4 3 3 2 2 3 4 5 6 5 5 5 6 5 9 10 15 10 14 13 9 10 10
6 6 6 5 4 7 6 5 6 7 1 3 10 17 15 12 11 9 8 7 8 6 5 4 2 3 3 2 3 3 2 2 3 3 4 4 3 4 5 4 5 5 5 6 6 6 9 10 11
6 5 8 5 2 4 4 4 3 6 5 4 8 15 14 13 10 8 7 7 7 7 6 4 2 3 2 1 2 3 2 2 3 3 3 4 3 4 5 5 5 6 5 6 7 7 9 9 10
7 8 7 6 4 2 2 5 4 7 7 8 10 11 12 12 11 8 7 6 7 7 6 4 2 2 1 1 2 2 2 3 3 3 3 4 3 4 5 5 5 5 5 5 6 8 8 8 8
8 7 5 5 5 4 3 6 9 6 10 8 10 10 12 11 10 9 9 7 7 8 7 6 2 1 1 2 2 2 2 2 2 2 3 4 4 5 5 5 5 5 5 7 6 8 7 8 9
5 4 5 7 6 5 2 6 5 10 10 9 9 10 10 11 10 8 9 8 8 8 7 5 2 0 1 2 3 3 2 2 2 2 2 3 4 5 4 4 5 6 5 5 6 6 6 7 7
6 7 5 7 7 6 5 6 5 9 10 9 10 10 11 10 10 9 9 9 9 8 8 6 4 2 1 2 3 2 2 2 2 2 2 3 4 4 4 4 5 6 5 5 8 7 6 8 8
2 5 2 6 8 7 7 9 6 10 11 10 10 10 11 12 12 10 10 10 9 8 8 6 5 3 1 1 2 2 2 2 2 2 2 3 3 4 4 4 5 6 5 5 6 8 8 7 8
4 5 6 4 7 5 9 10 8 13 11 10 10 11 12 12 11 11 11 10 10 9 8 6 4 3 1 0 1 2 2 3 3 3 3 3 4 4 5 5 5 5 5 7 8 7 9 8 7
5 6 4 5 6 5 6 9 7 9 15 12 11 10 11 11 11 11 12 11 11 10 9 7 6 3 2 1 1 2 3 3 4 3 2 3 4 5 6 5 5 5 6 7 7 7 7 9 7
6 2 3 4 3 7 5 5 4 1 5 10 10 10 9 10 11 12 12 11 10 10 10 8 6 4 3 1 1 3 3 3 3 3 3 4 5 5 5 6 5 6 6 6 7 7 9 10 9
3 5 2 4 5 2 4 3 6 5 5 8 10 10 11 9 9 10 13 13 12 9 9 8 6 4 3 2 2 2 3 3 4 3 3 5 5 5 6 6 6 6 6 7 8 8 7 10 11
2 2 3 5 4 4 5 4 4 6 7 10 11 12 11 10 9 9 11 12 11 10 9 8 7 5 4 3 3 3 4 3 3 4 5 5 4 5 6 6 5 6 6 7 8 8 8 8 9
4 4 5 3 3 4 5 3 4 6 6 7 8 8 8 8 8 8 9 11 10 10 9 7 7 6 5 5 4 4 4 4 5 5 5 4 4 4 6 6 5 6 6 7 7 8 9 9 9
4 4 3 3 3 3 3 3 7 6 6 5 7 9 8 7 8 8 10 11 11 11 10 8 7 7 6 5 4 4 4 4 5 5 4 5 4 4 5 7 6 6 7 7 7 7 9 9 9
2 3 3 3 3 1 3 6 6 7 7 5 4 4 5 7 7 9 10 11 12 12 10 9 8 7 6 5 4 4 4 3 3 4 4 5 4 5 6 6 7 7 7 8 7 7 8 8 8
3 2 2 3 4 3 6 6 4 6 6 6 7 7 8 8 9 9 10 11 11 12 11 9 9 7 6 5 5 4 4 4 4 5 5 5 5 6 7 7 8 7 7 7 7 6 8 9 8
3 4 1 3 3 4 6 6 6 8 9 10 10 10 10 9 9 10 10 11 11 11 9 9 8 7 6 5 5 4 4 5 4 4 6 6 6 6 7 7 7 7 7 7 7 7 8 9 8
5 4 4 4 2 3 5 8 4 10 8 7 8 8 9 10 11 10 10 10 10 10 9 8 8 7 6 6 5 4 4 4 4 5 6 6 6 6 7 8 8 7 7 7 7 8 9 10 9
3 6 6 4 5 4 4 11 6 6 5 6 6 5 5 8 10 10 10 10 10 10 9 9 8 7 7 6 4 4 4 5 5 5 5 5 6 6 7 7 7 8 9 8 8 10 10 10 11
Wind_Direction
237 235 232 253 247 98 88 93 111 118 83 57 46 57 66 42 43 114 111 67 62 51 41 23 18 22 24 24 24 23 22 20 18 17 15 14 13 12 11 10 8 6 4 3 1 359 357 355 354
261 246 254 236 254 126 107 126 115 88 103 111 81 87 87 79 86 104 106 82 73 62 53 27 24 27 27 26 24 22 19 18 16 14 12 10 9 8 7 7 6 4 1 360 358 356 353 351 350
269 262 251 250 33 52 121 113 102 101 121 116 74 39 67 103 103 94 106 106 85 73 69 34 30 30 29 26 23 21 17 15 13 11 9 7 6 5 4 5 4 1 358 357 355 353 350 349 346
278 251 236 56 69 53 108 113 122 125 115 101 112 93 67 53 82 108 119 97 85 77 77 50 35 32 29 26 22 19 16 12 10 9 8 5 3 3 3 2 1 358 355 354 352 350 347 346 343
239 257 165 91 84 84 96 117 140 140 133 141 129 111 101 88 101 113 109 90 83 83 82 70 43 33 26 23 20 16 13 9 7 7 6 3 1 1 360 360 358 355 352 351 349 347 345 343 340
263 272 234 120 113 103 110 134 161 126 121 131 128 115 122 133 128 123 124 108 92 85 73 64 43 31 22 21 18 10 8 6 4 5 4 1 360 359 358 359 356 352 350 349 347 344 343 341 338
293 302 45 102 127 145 139 153 160 126 138 156 151 117 130 154 136 136 132 118 102 89 74 56 50 29 12 11 15 3 4 4 2 4 4 1 0 358 356 357 352 350 349 348 345 343 343 339 337
314 302 98 120 149 144 131 151 98 122 117 95 155 150 159 159 140 146 131 123 122 110 89 53 46 37 16 358 0 360 2 3 2 3 2 2 359 356 352 352 348 347 347 345 343 343 341 339 339
285 229 105 99 142 129 137 149 93 28 94 112 54 38 121 135 144 151 156 170 152 117 99 76 46 28 12 353 0 358 358 1 1 360 359 359 352 348 346 344 345 345 345 343 341 342 340 341 338
344 52 65 28 40 129 153 155 139 165 149 163 128 92 114 135 153 172 190 175 141 109 90 80 58 28 18 0 352 342 354 360 351 358 356 348 350 340 346 342 340 342 340 340 338 337 341 339 330
35 67 89 46 40 120 150 142 150 187 192 186 170 150 146 160 173 190 193 151 120 109 94 90 82 50 35 354 343 335 336 356 343 353 350 351 349 337 340 336 333 335 334 335 331 333 333 327 325
78 69 86 78 45 117 140 137 170 222 85 60 155 154 160 177 188 195 185 149 128 118 111 94 88 79 51 3 327 317 341 352 330 338 345 356 339 335 336 329 326 329 325 327 329 329 324 321 321
91 98 84 95 85 101 125 167 217 226 157 105 125 148 168 185 193 194 176 141 140 135 125 116 117 85 54 334 310 338 333 336 315 327 348 356 344 337 333 328 325 323 324 329 330 321 319 319 317
111 117 120 128 112 116 197 211 217 236 150 147 153 165 179 193 196 183 163 156 160 142 133 115 87 70 20 350 340 314 319 309 319 332 346 350 353 339 331 326 321 320 325 326 319 317 317 313 311
134 129 142 161 169 153 245 243 213 196 145 169 174 180 190 200 198 186 169 176 169 143 134 128 145 91 11 358 326 303 284 306 313 324 343 353 359 336 332 319 317 318 319 318 314 310 307 311 316
181 182 186 177 178 129 221 274 177 149 157 185 187 191 197 205 200 188 175 173 158 143 141 137 162 73 5 338 295 276 282 311 303 330 341 352 346 333 328 316 312 311 315 313 309 304 314 312 308
206 230 157 158 188 160 212 265 141 145 174 196 196 201 200 206 206 192 182 168 158 153 146 150 151 190 280 298 286 300 311 319 320 333 331 331 330 328 324 311 302 312 312 306 310 320 310 306 306
360 336 358 154 182 197 223 251 204 175 191 205 203 207 207 208 205 195 184 167 158 148 140 152 163 179 180 293 320 317 322 322 308 300 297 318 321 321 317 298 303 309 305 304 306 306 303 301 302
341 317 303 99 146 210 247 261 247 180 192 211 215 210 214 213 201 188 179 162 153 150 154 162 168 168 155 147 330 312 312 302 293 280 294 317 316 311 301 298 299 300 300 299 301 304 305 304 300
279 284 322 98 161 212 276 275 260 182 194 204 215 220 215 212 198 185 174 165 164 165 165 165 167 160 168 152 253 257 268 269 269 272 311 313 304 297 301 297 295 295 297 298 300 303 302 304 307
267 296 6 338 286 216 266 270 169 129 186 194 212 226 230 212 199 185 175 171 169 171 166 164 147 165 189 170 246 282 289 291 304 327 318 298 294 292 292 291 290 292 294 295 298 298 302 306 304
327 58 354 300 296 240 189 279 197 178 204 212 217 222 229 228 205 184 175 174 172 164 144 142 150 182 191 188 237 279 287 289 293 292 282 289 294 299 297 293 293 294 293 293 297 308 300 301 305
346 53 284 279 270 276 201 250 195 179 206 213 212 215 218 216 204 188 173 170 163 147 141 146 158 189 190 196 232 254 269 278 287 292 291 296 297 296 294 293 298 296 294 293 297 303 300 299 298
311 272 237 264 263 252 172 222 234 195 187 181 185 193 198 195 188 174 156 150 142 138 141 151 172 193 188 203 228 242 264 283 294 297 299 298 293 291 294 300 300 297 294 293 298 301 301 300 298
225 270 240 222 220 216 140 216 248 172 158 175 185 187 184 178 172 165 155 154 149 149 154 163 183 198 192 202 223 241 257 268 275 286 291 294 293 293 293 304 295 293 291 294 300 304 302 300 302
255 276 306 283 285 339 193 229 246 154 152 156 170 179 177 179 177 173 166 161 158 160 164 172 189 197 189 199 223 237 252 255 260 272 280 284 284 284 287 294 292 292 296 304 303 303 301 303 303
277 228 22 308 292 274 253 232 198 142 168 192 206 209 211 200 185 174 166 164 164 167 170 178 186 190 189 198 217 234 248 265 267 274 278 275 276 288 295 295 292 294 296 298 303 298 301 299 297
267 318 267 238 257 273 279 257 225 189 218 213 213 217 216 198 182 174 172 172 169 167 169 175 181 188 186 194 216 228 234 251 260 271 274 277 282 290 293 292 294 295 296 297 298 296 295 297 295
185 220 231 261 270 234 274 267 225 176 184 189 203 209 204 191 182 177 175 170 163 160 163 172 182 185 187 198 210 229 246 258 265 267 271 278 285 290 292 295 296 298 298 297 294 291 293 292 293
213 217 195 208 230 212 250 269 252 183 166 178 207 207 187 177 173 171 168 165 164 166 170 179 184 186 190 191 199 228 246 257 262 267 277 286 290 290 291 294 299 300 301 293 288 287 290 285 284